Andover, NJ

2:06 AM EDT on April 26, 2018 (GMT -0400)
Andover

Weather History for K12N - March, 2013

Change the Weather History Date:

Friday, March 1, 2013

  Actual Average (KFWN) Record (KFWN)
Temperature  
Mean Temperature 35 °F -  
Max Temperature 42 °F 40 °F 62 °F (2017)
Min Temperature 28 °F 17 °F 0 °F (2014)
Degree Days  
Heating Degree Days 30    
Moisture  
Dew Point 26 °F    
Average Humidity 69    
Maximum Humidity 92    
Minimum Humidity 51    
Precipitation  
Precipitation 0.00 in - - ()
Sea Level Pressure  
Sea Level Pressure 29.73 in    
Wind  
Wind Speed 3 mph (NNW)    
Max Wind Speed 9 mph    
Max Gust Speed 18 mph    
Averages and records for this station are not official NWS values.
T = Trace of Precipitation, MM = Missing Value Source: NWS Daily Summary

Daily Weather History Graph

Daily Weather History Graph

Search for Another Location

Airport or City:

Astronomy

Mar. 01, 2013 Rise Set
Actual Time 6:32 AM EST 5:50 PM EST
Civil Twilight 6:05 AM EST 6:17 PM EST
Nautical Twilight 5:33 AM EST 6:49 PM EST
Astronomical Twilight 5:01 AM EST 7:21 PM EST
Moon 10:23 PM EST (3/1) 8:15 AM EST (3/1)
Length of Visible Light 12h 12m
Length of Day
11h 17m
Waning Gibbous, 83% of the Moon is Illuminated
Mar 1
Waning Gibbous
Mar 4
Last Quarter
Mar 11
New
Mar 19
First Quarter
Mar 27
Full

Hourly Weather History & Observations

Time (EST) Temp. Windchill Dew Point Humidity Pressure Visibility Wind Dir Wind Speed Gust Speed Precip Events Conditions
12:54 AM 30.0 °F - 27.0 °F 88% 29.65 in - Calm Calm - N/A   Unknown
1:54 AM 28.0 °F - 26.1 °F 92% 29.65 in - Calm Calm - N/A   Unknown
2:54 AM 28.0 °F - 25.0 °F 88% 29.66 in - Calm Calm - N/A   Unknown
3:54 AM 30.0 °F - 28.0 °F 92% 29.67 in - Calm Calm - N/A   Unknown
4:54 AM 30.0 °F - 27.0 °F 88% 29.68 in - Calm Calm - N/A   Unknown
5:54 AM 35.1 °F 31.0 °F 28.0 °F 76% 29.68 in - Variable 4.6 mph - N/A   Unknown
6:54 AM 34.0 °F 31.0 °F 27.0 °F 75% 29.69 in - North 3.5 mph - N/A   Unknown
7:54 AM 36.0 °F 32.1 °F 27.0 °F 70% 29.71 in - NNW 4.6 mph - N/A   Unknown
8:54 AM 37.0 °F 31.0 °F 27.0 °F 67% 29.72 in - NNW 8.1 mph - N/A   Unknown
9:54 AM 41.0 °F 35.2 °F 27.0 °F 57% 29.72 in - NW 9.2 mph 18.4 mph N/A   Unknown
10:54 AM 39.9 °F 34.5 °F 26.1 °F 58% 29.73 in - NNW 8.1 mph - N/A   Unknown
11:54 AM 41.0 °F 35.2 °F 25.0 °F 53% 29.73 in - NNW 9.2 mph 17.3 mph N/A   Unknown
12:54 PM 42.1 °F 37.1 °F 25.0 °F 51% 29.72 in - North 8.1 mph 16.1 mph N/A   Unknown
1:54 PM 39.9 °F 36.7 °F 25.0 °F 55% 29.73 in - Variable 4.6 mph - N/A   Unknown
2:54 PM 39.9 °F 35.1 °F 26.1 °F 58% 29.73 in - North 6.9 mph - N/A   Unknown
3:54 PM 39.0 °F 34.8 °F 27.0 °F 62% 29.74 in - NNW 5.8 mph - N/A   Unknown
4:54 PM 37.9 °F 35.5 °F 27.0 °F 65% 29.75 in - Variable 3.5 mph - N/A   Unknown
5:54 PM 37.0 °F 31.0 °F 26.1 °F 65% 29.77 in - NNW 8.1 mph - N/A   Unknown
7:54 PM 36.0 °F - 24.1 °F 62% 29.80 in - Calm Calm - N/A   Unknown
8:54 PM 35.1 °F 32.2 °F 23.0 °F 61% 29.81 in - Variable 3.5 mph - N/A   Unknown
9:54 PM 34.0 °F 28.0 °F 23.0 °F 64% 29.83 in - North 6.9 mph - N/A   Unknown
10:54 PM 33.1 °F 26.9 °F 23.0 °F 66% 29.82 in - North 6.9 mph - N/A   Unknown
11:54 PM 33.1 °F 30.0 °F 21.9 °F 64% 29.82 in - North 3.5 mph - N/A   Unknown